When you browse on this site, cookies collect data to enhance your experience and personalize the content and advertising you see.
Visit our Privacy Policy to learn more. By continuing to use the site, you agree to this use of cookies and data.
  • In Hungary
  • List of Countries
  • For 7 days
  • Water Temperature
  • Satellite Maps
  • Weather Map
  • News
  • Weather Widgets
  • user-avatar
    Login

    Hourly Weather Vyshneve

    Today, 22 February, Friday

    Time Temperature Precipitation Wind Pressure Humidity
    00:00 +3°C° 0 mm 4 mps 761 mmHg 64%
    01:00 +3°C° 0 mm 4 mps 761 mmHg 69%
    02:00 +1°C° 0 mm 4 mps 761 mmHg 74%
    03:00 +2°C° 0 mm 3 mps 761 mmHg 76%
    04:00 +2°C° 0 mm 3 mps 760 mmHg 78%
    05:00 +3°C° 0 mm 2 mps 760 mmHg 79%
    06:00 +3°C° 0.5 mm 2 mps 760 mmHg 79%
    07:00 +2°C° 0.5 mm 3 mps 760 mmHg 79%
    08:00 +2°C° 0 mm 3 mps 760 mmHg 77%
    09:00 +1°C° 0.9 mm 3 mps 760 mmHg 82%
    10:00 -1°C° 0.9 mm 4 mps 759 mmHg 87%
    11:00 -2°C° 0.9 mm 5 mps 759 mmHg 91%
    12:00 -3°C° 0.8 mm 6 mps 759 mmHg 91%
    13:00 -4°C° 0.8 mm 7 mps 759 mmHg 90%
    14:00 -4°C° 0.8 mm 7 mps 759 mmHg 90%
    15:00 -6°C° 0.7 mm 8 mps 760 mmHg 90%
    16:00 -7°C° 0.7 mm 8 mps 760 mmHg 90%
    17:00 -7°C° 0.7 mm 8 mps 760 mmHg 91%
    18:00 -8°C° 0.5 mm 8 mps 761 mmHg 88%
    19:00 -8°C° 0.5 mm 8 mps 762 mmHg 86%
    20:00 -8°C° 0.5 mm 8 mps 762 mmHg 84%
    21:00 -10°C° 0.1 mm 8 mps 763 mmHg 82%
    22:00 -10°C° 0.1 mm 8 mps 764 mmHg 79%
    23:00 -10°C° 0.1 mm 8 mps 764 mmHg 77%

    Tomorrow, 23 February, Saturday

    Time Temperature Precipitation Wind Pressure Humidity
    00:00 -11°C° 0 mm 7 mps 765 mmHg 76%
    01:00 -11°C° 0 mm 7 mps 765 mmHg 76%
    02:00 -11°C° 0 mm 7 mps 766 mmHg 75%
    03:00 -11°C° 0 mm 7 mps 766 mmHg 75%
    04:00 -11°C° 0 mm 7 mps 767 mmHg 75%
    05:00 -11°C° 0 mm 7 mps 767 mmHg 75%
    06:00 -11°C° 0 mm 7 mps 768 mmHg 75%
    07:00 -11°C° 0 mm 7 mps 769 mmHg 76%
    08:00 -11°C° 0 mm 7 mps 769 mmHg 76%
    09:00 -9°C° 0 mm 7 mps 770 mmHg 75%
    10:00 -8°C° 0 mm 8 mps 770 mmHg 74%
    11:00 -8°C° 0 mm 8 mps 770 mmHg 73%
    12:00 -7°C° 0 mm 7 mps 771 mmHg 72%
    13:00 -7°C° 0 mm 7 mps 771 mmHg 71%
    14:00 -6°C° 0 mm 7 mps 771 mmHg 69%
    15:00 -6°C° 0 mm 6 mps 771 mmHg 70%
    16:00 -6°C° 0 mm 6 mps 771 mmHg 72%
    17:00 -6°C° 0 mm 6 mps 772 mmHg 73%
    18:00 -8°C° 0 mm 6 mps 772 mmHg 74%
    19:00 -9°C° 0 mm 6 mps 772 mmHg 75%
    20:00 -9°C° 0 mm 6 mps 773 mmHg 77%
    21:00 -10°C° 0 mm 6 mps 773 mmHg 78%
    22:00 -10°C° 0 mm 6 mps 773 mmHg 79%
    23:00 -11°C° 0 mm 5 mps 773 mmHg 81%

    Day after tomorrow, 24 February, Sunday

    Time Temperature Precipitation Wind Pressure Humidity
    00:00 -11°C° 0 mm 5 mps 773 mmHg 81%
    01:00 -11°C° 0 mm 5 mps 773 mmHg 82%
    02:00 -10°C° 0 mm 4 mps 773 mmHg 83%
    03:00 -10°C° 0 mm 4 mps 773 mmHg 83%
    04:00 -10°C° 0 mm 4 mps 773 mmHg 83%
    05:00 -11°C° 0 mm 4 mps 773 mmHg 84%
    06:00 -10°C° 0 mm 4 mps 773 mmHg 83%
    07:00 -10°C° 0 mm 4 mps 774 mmHg 81%
    08:00 -11°C° 0 mm 5 mps 774 mmHg 80%
    09:00 -9°C° 0 mm 4 mps 774 mmHg 76%
    10:00 -8°C° 0 mm 4 mps 774 mmHg 71%
    11:00 -7°C° 0 mm 4 mps 774 mmHg 67%
    12:00 -5°C° 0 mm 4 mps 774 mmHg 66%
    13:00 -4°C° 0 mm 3 mps 774 mmHg 64%
    14:00 -2°C° 0 mm 3 mps 773 mmHg 63%
    15:00 -4°C° 0 mm 3 mps 773 mmHg 66%
    16:00 -4°C° 0 mm 3 mps 773 mmHg 70%
    17:00 -4°C° 0 mm 3 mps 773 mmHg 74%
    18:00 -5°C° 0 mm 3 mps 773 mmHg 74%
    19:00 -5°C° 0 mm 3 mps 773 mmHg 75%
    20:00 -5°C° 0 mm 3 mps 773 mmHg 76%
    21:00 -5°C° 0 mm 3 mps 773 mmHg 76%
    22:00 -5°C° 0 mm 3 mps 773 mmHg 77%
    23:00 -5°C° 0 mm 3 mps 773 mmHg 77%

    25 February, Monday

    Time Temperature Precipitation Wind Pressure Humidity
    00:00 -5°C° 0 mm 3 mps 773 mmHg 78%
    01:00 -5°C° 0 mm 3 mps 773 mmHg 80%
    02:00 -6°C° 0 mm 3 mps 773 mmHg 81%
    03:00 -6°C° 0 mm 3 mps 772 mmHg 82%
    04:00 -6°C° 0 mm 3 mps 772 mmHg 84%
    05:00 -6°C° 0 mm 3 mps 772 mmHg 85%
    06:00 -5°C° 0 mm 4 mps 772 mmHg 83%
    07:00 -5°C° 0 mm 4 mps 771 mmHg 82%
    08:00 -4°C° 0 mm 4 mps 771 mmHg 81%
    09:00 -3°C° 0 mm 4 mps 771 mmHg 79%
    10:00 -2°C° 0 mm 4 mps 770 mmHg 77%
    11:00 -1°C° 0 mm 4 mps 770 mmHg 75%
    12:00 0°C° 0 mm 5 mps 769 mmHg 73%
    13:00 +1°C° 0 mm 5 mps 769 mmHg 72%
    14:00 +1°C° 0 mm 5 mps 768 mmHg 70%
    15:00 +1°C° 0 mm 5 mps 768 mmHg 73%
    16:00 0°C° 0 mm 5 mps 767 mmHg 76%
    17:00 0°C° 0 mm 4 mps 766 mmHg 79%
    18:00 -1°C° 0 mm 4 mps 766 mmHg 80%
    19:00 -1°C° 0 mm 4 mps 766 mmHg 81%
    20:00 -1°C° 0 mm 4 mps 766 mmHg 82%
    21:00 -1°C° 0 mm 4 mps 765 mmHg 84%
    22:00 -1°C° 0 mm 4 mps 765 mmHg 86%
    23:00 -1°C° 0 mm 4 mps 765 mmHg 88%

    26 February, Tuesday

    Time Temperature Precipitation Wind Pressure Humidity
    00:00 -2°C° 0 mm 4 mps 764 mmHg 89%
    01:00 -2°C° 0 mm 4 mps 764 mmHg 91%
    02:00 -3°C° 0 mm 4 mps 764 mmHg 92%
    03:00 -4°C° 0 mm 5 mps 763 mmHg 93%
    04:00 -4°C° 0 mm 5 mps 763 mmHg 93%
    05:00 -2°C° 0 mm 5 mps 762 mmHg 93%
    06:00 -2°C° 0 mm 5 mps 762 mmHg 91%
    07:00 -2°C° 0 mm 5 mps 762 mmHg 89%
    08:00 -1°C° 0 mm 5 mps 762 mmHg 87%
    09:00 -1°C° 0 mm 5 mps 761 mmHg 84%
    10:00 0°C° 0 mm 5 mps 761 mmHg 81%
    11:00 +1°C° 0 mm 5 mps 760 mmHg 78%
    12:00 +1°C° 0 mm 5 mps 759 mmHg 78%
    13:00 +1°C° 0 mm 5 mps 758 mmHg 77%
    14:00 +2°C° 0 mm 5 mps 757 mmHg 77%
    15:00 +1°C° 0 mm 5 mps 756 mmHg 79%
    16:00 +1°C° 0 mm 4 mps 755 mmHg 82%
    17:00 +1°C° 0 mm 4 mps 755 mmHg 84%
    18:00 +1°C° 0.4 mm 4 mps 754 mmHg 85%
    19:00 +1°C° 0.4 mm 5 mps 753 mmHg 86%
    20:00 +1°C° 0.4 mm 5 mps 752 mmHg 88%
    21:00 0°C° 0.7 mm 5 mps 751 mmHg 88%
    22:00 -1°C° 0.7 mm 6 mps 750 mmHg 89%
    23:00 -1°C° 0.7 mm 6 mps 749 mmHg 89%

    27 February, Wednesday

    Time Temperature Precipitation Wind Pressure Humidity
    00:00 -1°C° 0.5 mm 6 mps 749 mmHg 90%
    01:00 -1°C° 0.5 mm 7 mps 749 mmHg 90%
    02:00 -1°C° 0.5 mm 7 mps 749 mmHg 90%
    03:00 -2°C° 0 mm 7 mps 749 mmHg 90%
    04:00 -2°C° 0 mm 6 mps 749 mmHg 90%
    05:00 -2°C° 0 mm 6 mps 750 mmHg 91%
    06:00 -2°C° 0 mm 6 mps 750 mmHg 90%
    07:00 -2°C° 0 mm 6 mps 751 mmHg 90%
    08:00 -2°C° 0 mm 6 mps 752 mmHg 90%
    09:00 -2°C° 0 mm 6 mps 752 mmHg 84%
    10:00 -1°C° 0 mm 7 mps 753 mmHg 78%
    11:00 -1°C° 0 mm 7 mps 754 mmHg 72%
    12:00 0°C° 0 mm 7 mps 754 mmHg 69%
    13:00 0°C° 0 mm 7 mps 754 mmHg 67%
    14:00 +2°C° 0 mm 7 mps 755 mmHg 64%
    15:00 0°C° 0 mm 7 mps 755 mmHg 65%
    16:00 0°C° 0 mm 7 mps 756 mmHg 67%
    17:00 -1°C° 0 mm 7 mps 757 mmHg 69%
    18:00 -1°C° 0 mm 6 mps 757 mmHg 72%
    19:00 -1°C° 0 mm 6 mps 758 mmHg 75%
    20:00 -1°C° 0 mm 5 mps 758 mmHg 77%
    21:00 -1°C° 0 mm 5 mps 758 mmHg 80%
    22:00 -2°C° 0 mm 4 mps 759 mmHg 83%
    23:00 -3°C° 0 mm 4 mps 759 mmHg 85%
    Show more